Home > Weather > Bellinzona > Past weeks

Flag for Switzerland Past Weather in Bellinzona, Ticino, Switzerland — Yesterday and Last 2 Weeks

Now
61 °F

Cool.


Feels Like: 61 °F
Forecast: 54 / 74 °F
Wind: 3 mph from Northwest

Location: Locarno-Magadino

Current Time: May 31, 2016 at 6:11:24 PM

Latest Report: May 31, 2016 at 5:00 PM


Visibility: N/A

Pressure: 29.91 "Hg

Humidity: 81%

Dew Point: 55 °F

Location of BellinzonaLocation

Past Weather in Bellinzona — Graph

°F

Bellinzona Temperature Yesterday

Maximum temperature yesterday: 64 °F (at 4:00 PM)
Minimum temperature yesterday: 57 °F (at 3:00 AM)
Average temperature yesterday: 60 °F

High & Low Weather Summary for the Past Weeks

 TemperatureHumidityPressure
High78 °F (May 21, 5:00 PM)98% (May 30, 3:00 AM)30.16 "Hg (May 30, 3:00 AM)
Low41 °F (May 17, 6:00 AM)23% (May 17, 3:00 PM)29.71 "Hg (May 24, 6:00 PM)
Average61 °F70%29.93 "Hg
* Reported May 16 3:00 PM — May 31 3:00 PM, Bellinzona, Weather by CustomWeather, © 2016

Note: Actual official high and low records may vary slightly from our data, if they occured in-between our weather recording intervals... More about our weather records

Advertising

Bellinzona Weather History for the Previous 24 Hours

Scroll right to see more
 ConditionsComfort  
Time TempWeatherWind HumidityBarometerVisibility
3:00 PM
Tue, May 31
60 °FCool.7 mph76%29.91 "HgN/A
2:00 PM57 °FCool.6 mph87%29.93 "HgN/A
1:00 PM57 °FCool.5 mph89%29.94 "HgN/A
12:00 PM58 °FCool.3 mph94%29.93 "HgN/A
11:00 AM59 °FCool.1 mph91%29.93 "HgN/A
10:00 AM58 °FCool.1 mph94%29.92 "HgN/A
9:00 AM58 °FCool.3 mph96%29.91 "HgN/A
8:00 AM57 °FCool.2 mph98%29.90 "HgN/A
7:00 AM57 °FCool.3 mph97%29.89 "HgN/A
6:00 AM57 °FCool.3 mph98%29.88 "HgN/A
5:00 AM58 °FCool.1 mph97%29.88 "HgN/A
4:00 AM57 °FCool.1 mph98%29.88 "HgN/A
3:00 AM57 °FCool.No wind98%29.88 "HgN/A
2:00 AM57 °FCool.2 mph98%29.89 "HgN/A
1:00 AM57 °FCool.2 mph98%29.89 "HgN/A
12:00 AM58 °FCool.1 mph98%29.89 "HgN/A
11:00 PM
Mon, May 30
58 °FCool.2 mph97%29.88 "HgN/A
10:00 PM60 °FCool.2 mph92%29.87 "HgN/A
9:00 PM61 °FCool.2 mph84%29.85 "HgN/A
8:00 PM62 °FCool.2 mph77%29.83 "HgN/A
7:00 PM63 °FMild.3 mph81%29.82 "HgN/A
6:00 PM61 °FCool.1 mph83%29.82 "HgN/A
Weather by CustomWeather, © 2016

See weather overviewHow to use our weather pages